TimeEDT,TemperatureF,Dew PointF,Humidity,Sea Level PressureIn,VisibilityMPH,Wind Direction,Wind SpeedMPH,Gust SpeedMPH,PrecipitationIn,Events,Conditions,WindDirDegrees,DateUTC
12:51 AM,37.9,12.0,35,30.25,10.0,NW,6.9,20.7,N/A,,Clear,320,2014-03-14 04:51:00
1:51 AM,37.9,9.0,30,30.26,10.0,NNW,10.4,18.4,N/A,,Clear,330,2014-03-14 05:51:00
2:51 AM,37.9,10.0,32,30.27,10.0,Variable,5.8,-,N/A,,Clear,0,2014-03-14 06:51:00
3:51 AM,37.0,9.0,31,30.27,10.0,Variable,3.5,-,N/A,,Clear,0,2014-03-14 07:51:00
4:51 AM,36.0,12.0,37,30.28,10.0,Variable,3.5,-,N/A,,Clear,0,2014-03-14 08:51:00
5:51 AM,28.0,16.0,61,30.28,10.0,NE,4.6,-,N/A,,Clear,50,2014-03-14 09:51:00
6:51 AM,28.0,17.1,63,30.31,10.0,ENE,3.5,-,N/A,,Clear,70,2014-03-14 10:51:00
7:51 AM,30.0,19.9,66,30.33,10.0,Calm,Calm,-,N/A,,Clear,0,2014-03-14 11:51:00
8:51 AM,42.1,14.0,32,30.35,10.0,East,3.5,-,N/A,,Clear,100,2014-03-14 12:51:00
9:51 AM,44.1,15.1,31,30.36,10.0,West,4.6,-,N/A,,Clear,270,2014-03-14 13:51:00
10:51 AM,44.1,15.1,31,30.37,10.0,Variable,4.6,-,N/A,,Clear,0,2014-03-14 14:51:00
11:51 AM,46.0,19.9,35,30.38,10.0,South,4.6,-,N/A,,Clear,190,2014-03-14 15:51:00
12:51 PM,48.9,19.0,31,30.36,10.0,SSE,4.6,-,N/A,,Clear,150,2014-03-14 16:51:00
1:51 PM,50.0,24.1,36,30.35,10.0,South,6.9,-,N/A,,Clear,180,2014-03-14 17:51:00
2:51 PM,51.1,27.0,39,30.31,10.0,SSE,5.8,-,N/A,,Clear,160,2014-03-14 18:51:00
3:51 PM,53.1,30.9,43,30.28,10.0,SW,10.4,-,N/A,,Clear,220,2014-03-14 19:51:00
4:51 PM,54.0,30.9,41,30.26,10.0,SW,12.7,21.9,N/A,,Clear,220,2014-03-14 20:51:00
5:51 PM,53.1,32.0,45,30.23,10.0,SW,12.7,21.9,N/A,,Clear,230,2014-03-14 21:51:00
6:51 PM,53.1,36.0,52,30.23,10.0,SW,13.8,20.7,N/A,,Clear,230,2014-03-14 22:51:00
7:51 PM,53.1,37.9,57,30.22,10.0,SW,13.8,21.9,N/A,,Clear,230,2014-03-14 23:51:00
8:51 PM,54.0,39.0,57,30.21,10.0,SW,15.0,21.9,N/A,,Clear,230,2014-03-15 00:51:00
9:51 PM,55.0,42.1,62,30.21,10.0,SW,16.1,21.9,N/A,,Clear,230,2014-03-15 01:51:00
10:51 PM,55.0,44.1,67,30.20,10.0,WSW,16.1,23.0,N/A,,Clear,240,2014-03-15 02:51:00
11:51 PM,55.9,45.0,67,30.17,10.0,SW,11.5,-,N/A,,Clear,230,2014-03-15 03:51:00